User: anonymous   Login
Location: Homewood
(41.1836°S, 175.9581°E)
Time: 09:41:38
(UTC+00:00)
Language:

Cosmos 2084 Rocket - Orbit

View from above orbital plane
View from above orbital plane
View from above satellite
View from above satellite

Ground track
Ground track

The orbit data is extracted from the following two-line orbital elements,

1 20666U 90055D   24169.88132128  .00002843  00000-0  23708-3 0  9994
2 20666  62.7836 228.0924 0085870 143.1752 217.5286 14.98222201843638
Epoch (UTC): 17 June 2024 21:09:06
Eccentricity: 0.0085870
inclination: 62.7836°
perigee height: 513 km
apogee height: 632 km
right ascension of ascending node: 228.0924°
argument of perigee: 143.1752°
revolutions per day: 14.98222201
mean anomaly at epoch: 217.5286°
orbit number at epoch: 84363

The dashed part of the orbit path shows where the satellite is in the earth's shadow,  

DLR